DW4236 Weather Reports


time (UTC)temp
C
wind
direction
speed
KPH
gust
KPH
rain 1hr
cm
rain 24hr
cm
rain mn
cm
humidity
%
barometer
mb
20260505214105 27 255 4.8 27.4 0.00 0.05 0.05 36 1007.1
20260505213605 27 252 8.0 20.9 0.00 0.05 0.05 38 1007.0
20260505212603 27 246 9.7 19.3 0.00 0.05 0.05 37 1007.0
20260505211604 27 240 8.0 22.5 0.00 0.05 0.05 35 1006.9
20260505211104 28 254 8.0 27.4 0.00 0.05 0.05 36 1006.8
20260505210604 28 253 12.9 32.2 0.00 0.05 0.05 35 1006.7
20260505210105 28 279 16.1 33.8 0.00 0.05 0.05 34 1006.7
20260505205605 28 262 12.9 32.2 0.00 0.05 0.05 36 1006.5
20260505205105 28 268 9.7 32.2 0.00 0.05 0.05 37 1006.5
20260505204605 28 225 9.7 19.3 0.00 0.05 0.05 36 1006.5
20260505204104 28 259 11.3 19.3 0.00 0.05 0.05 37 1006.5
20260505203104 29 235 6.4 19.3 0.00 0.05 0.05 37 1006.6
20260505202104 28 269 8.0 20.9 0.00 0.05 0.05 37 1006.8
20260505201109 28 269 14.5 24.1 0.00 0.05 0.05 36 1007.0
20260505200105 28 237 12.9 20.9 0.00 0.05 0.05 35 1007.0
20260505195604 28 254 9.7 27.4 0.00 0.05 0.05 36 1006.9
20260505195105 28 238 8.0 12.9 0.00 0.05 0.05 38 1007.1
20260505194604 28 259 14.5 32.2 0.00 0.05 0.05 37 1007.1
20260505194104 28 266 11.3 25.7 0.00 0.05 0.05 36 1007.0
20260505193604 28 267 4.8 32.2 0.00 0.05 0.05 38 1007.2
20260505193104 28 256 14.5 38.6 0.00 0.05 0.05 35 1007.3
20260505192604 28 259 8.0 24.1 0.00 0.05 0.05 36 1007.3
20260505192105 28 253 12.9 33.8 0.00 0.05 0.05 36 1007.4
20260505191604 28 246 11.3 35.4 0.00 0.05 0.05 37 1007.5
20260505191104 28 249 8.0 24.1 0.00 0.05 0.05 37 1007.5
20260505190604 28 251 8.0 24.1 0.00 0.05 0.05 41 1007.5
20260505190105 27 238 9.7 19.3 0.00 0.05 0.05 38 1007.6
20260505185105 28 238 8.0 20.9 0.00 0.05 0.05 40 1007.5
20260505184604 28 275 6.4 32.2 0.00 0.05 0.05 41 1007.7
20260505184104 28 254 8.0 32.2 0.00 0.05 0.05 44 1007.8
20260505183605 27 270 11.3 25.7 0.00 0.05 0.05 42 1007.9
20260505183104 27 272 9.7 20.9 0.00 0.05 0.05 42 1008.1
20260505182605 27 247 8.0 22.5 0.00 0.05 0.05 42 1008.0
20260505182104 27 292 4.8 19.3 0.00 0.05 0.05 41 1008.2
20260505181604 27 287 8.0 16.1 0.00 0.05 0.05 40 1008.3
20260505180604 28 303 12.9 27.4 0.00 0.05 0.05 38 1008.4
20260505180104 28 294 14.5 32.2 0.00 0.05 0.05 41 1008.3
20260505175104 28 298 14.5 40.2 0.00 0.05 0.05 41 1008.4
20260505174604 28 292 19.3 35.4 0.00 0.05 0.05 38 1008.5
20260505174104 28 283 4.8 27.4 0.00 0.05 0.05 42 1008.4
20260505173604 28 285 12.9 22.5 0.00 0.05 0.05 40 1008.4
20260505173105 28 314 14.5 33.8 0.00 0.05 0.05 42 1008.5
20260505172104 28 299 1.6 24.1 0.00 0.05 0.05 42 1008.3
20260505171604 27 291 11.3 32.2 0.00 0.05 0.05 42 1008.5
20260505171104 27 224 14.5 32.2 0.00 0.05 0.05 42 1008.4
20260505170605 27 269 14.5 27.4 0.00 0.05 0.05 42 1008.6
20260505165604 27 274 9.7 20.9 0.00 0.05 0.05 43 1008.8
20260505164604 27 309 12.9 27.4 0.00 0.05 0.05 41 1009.1
20260505164104 27 299 3.2 19.3 0.00 0.05 0.05 47 1009.1
20260505163104 27 258 6.4 20.9 0.00 0.05 0.05 45 1009.2
20260505162604 26 280 14.5 32.2 0.00 0.05 0.05 44 1009.5
20260505162104 26 291 19.3 32.2 0.00 0.05 0.05 42 1009.7
20260505161604 26 289 11.3 20.9 0.00 0.05 0.05 44 1009.7
20260505160104 26 290 16.1 27.4 0.00 0.05 0.05 43 1010.0
20260505153104 26 334 8.0 29.0 0.00 0.05 0.05 47 1010.0
20260505152104 26 300 16.1 24.1 0.00 0.05 0.05 46 1010.2
20260505151604 25 302 9.7 20.9 0.00 0.05 0.05 48 1010.0
20260505151103 25 312 12.9 32.2 0.00 0.05 0.05 46 1009.8
20260505150604 25 312 17.7 29.0 0.00 0.05 0.05 46 1009.9
20260505150105 25 301 4.8 27.4 0.00 0.05 0.05 50 1010.0
20260505140604 22 148 3.2 4.8 0.00 0.05 0.05 63 1010.5
20260505140104 22 151 1.6 4.8 0.00 0.05 0.05 64 1010.6
20260505130105 18 132 1.6 4.8 0.00 0.05 0.05 74 1010.7
20260505124104 17 142 1.6 4.8 0.00 0.05 0.05 79 1010.5
20260505123604 17 163 1.6 3.2 0.00 0.05 0.05 80 1010.5
20260505123103 16 163 0.0 0.0 0.00 0.05 0.05 80 1010.6
20260505122604 15 163 0.0 0.0 0.00 0.05 0.05 82 1010.6
20260505122104 15 163 0.0 0.0 0.00 0.05 0.05 83 1010.6
20260505121605 15 163 0.0 1.6 0.00 0.05 0.05 83 1010.7
20260505120605 15 179 3.2 4.8 0.03 0.05 0.05 85 1010.9
20260505120105 15 120 0.0 4.8 0.03 0.05 0.05 86 1011.0
20260505115604 15 37 1.6 4.8 0.05 0.05 0.05 86 1010.8
20260505115104 14 357 1.6 4.8 0.05 0.05 0.05 86 1010.7
20260505114605 14 125 0.0 1.6 0.05 0.05 0.05 85 1010.9
20260505113604 14 125 3.2 4.8 0.05 0.05 0.05 84 1010.8
20260505113104 14 125 0.0 3.2 0.05 0.05 0.05 83 1010.8
20260505112605 14 125 1.6 4.8 0.05 0.05 0.05 82 1010.8
20260505111604 15 223 3.2 14.5 0.05 0.05 0.05 82 1010.6
20260505110603 14 271 4.8 20.9 0.03 0.03 0.03 82 1009.8
20260505110104 14 235 4.8 14.5 0.03 0.03 0.03 80 1010.8
20260505102104 12 194 0.0 3.2 0.00 0.00 0.00 80 1011.1
20260505101103 12 194 0.0 0.0 0.00 0.00 0.00 80 1011.2
20260505100604 12 194 0.0 0.0 0.00 0.00 0.00 80 1011.0
20260505100104 11 194 0.0 0.0 0.00 0.00 0.00 80 1011.0
20260505095604 11 194 0.0 0.0 0.00 0.00 0.00 80 1010.8
20260505094604 11 194 0.0 0.0 0.00 0.00 0.00 79 1010.6
20260505092603 12 194 0.0 0.0 0.00 0.00 0.00 77 1010.2
20260505092103 12 194 0.0 0.0 0.00 0.00 0.00 76 1010.1
20260505091604 12 194 0.0 0.0 0.00 0.00 0.00 75 1010.0
20260505091104 12 194 0.0 0.0 0.00 0.00 0.00 75 1010.1
20260505090604 12 194 0.0 0.0 0.00 0.00 0.00 74 1010.0
20260505090104 13 194 0.0 0.0 0.00 0.00 0.00 73 1010.1
20260505085604 13 194 0.0 0.0 0.00 0.00 0.00 73 1010.1
20260505085104 13 194 0.0 0.0 0.00 0.00 0.00 72 1010.2
20260505084604 13 194 0.0 3.2 0.00 0.00 0.00 72 1010.3
20260505084104 13 228 0.0 1.6 0.00 0.00 0.00 72 1010.3
20260505083103 13 237 0.0 3.2 0.00 0.00 0.00 71 1010.3
20260505082604 13 278 0.0 0.0 0.00 0.00 0.00 71 1010.4
20260505082104 13 272 0.0 0.0 0.00 0.00 0.00 70 1010.3
20260505081603 13 272 0.0 1.6 0.00 0.00 0.00 69 1010.2
20260505081103 14 272 0.0 1.6 0.00 0.00 0.00 69 1010.2
20260505080605 14 278 0.0 3.2 0.00 0.00 0.00 69 1010.1
20260505080104 14 280 1.6 8.0 0.00 0.00 0.00 69 1010.2
20260505075604 14 254 1.6 4.8 0.00 0.00 0.00 69 1010.3
20260505075104 14 252 3.2 8.0 0.00 0.00 0.00 68 1010.3
20260505074603 14 258 1.6 3.2 0.00 0.00 0.00 68 1010.4
20260505074104 15 280 3.2 8.0 0.00 0.00 0.00 68 1010.4
20260505073605 15 259 1.6 4.8 0.00 0.00 0.00 68 1010.4
20260505073104 15 255 0.0 4.8 0.00 0.00 0.00 67 1010.4
20260505072104 15 239 3.2 16.1 0.00 0.00 0.00 67 1010.4
20260505071605 15 250 1.6 16.1 0.00 0.00 0.00 66 1010.3
20260505071105 15 264 3.2 8.0 0.00 0.00 0.00 66 1010.4
20260505070604 15 298 3.2 9.7 0.00 0.00 0.00 66 1010.4
20260505070104 15 295 1.6 4.8 0.00 0.00 0.00 65 1010.4
20260505065104 15 259 0.0 9.7 0.00 0.00 0.00 64 1010.3
20260505064605 15 251 3.2 12.9 0.00 0.00 0.00 63 1010.2
20260505064104 15 272 4.8 12.9 0.00 0.00 0.00 63 1010.3
20260505063603 15 219 8.0 14.5 0.00 0.00 0.00 63 1010.3
20260505063104 15 204 3.2 8.0 0.00 0.00 0.00 63 1010.2
20260505062604 15 229 3.2 9.7 0.00 0.00 0.00 62 1010.2
20260505062104 15 217 3.2 9.7 0.00 0.00 0.00 62 1010.3
20260505061604 15 230 3.2 11.3 0.00 0.00 0.00 62 1010.3
20260505060605 15 249 4.8 11.3 0.00 0.00 0.00 61 1010.4
20260505060105 15 243 3.2 9.7 0.00 0.00 0.00 60 1010.5
20260505055604 15 271 8.0 16.1 0.00 0.00 0.00 60 1010.5
20260505055104 15 304 0.0 3.2 0.00 0.00 0.00 59 1010.5
20260505054605 15 294 3.2 11.3 0.00 0.00 0.00 59 1010.5
20260505054105 15 281 3.2 12.9 0.00 0.00 0.00 59 1010.6
20260505053603 16 258 4.8 11.3 0.00 0.00 0.00 58 1010.6
20260505053104 16 282 3.2 12.9 0.00 0.00 0.00 58 1010.6
20260505051604 15 281 4.8 9.7 0.00 0.00 0.00 58 1010.5
20260505051104 16 290 1.6 12.9 0.00 0.00 0.00 57 1010.5
20260505050604 16 252 1.6 4.8 0.00 0.00 0.00 57 1010.5
20260505050105 16 306 3.2 9.7 0.00 0.00 0.00 56 1010.4
20260505041604 16 281 3.2 12.9 0.00 0.00 0.00 56 1010.7
20260505041104 16 276 0.0 1.6 0.00 0.00 0.00 56 1010.6
20260505040604 16 276 1.6 8.0 0.00 0.00 0.00 55 1010.7
20260505040104 16 242 3.2 14.5 0.00 0.00 0.00 56 1010.7
20260505035604 16 270 0.0 3.2 0.00 0.00 0.00 56 1010.7
20260505035104 16 273 1.6 8.0 0.00 0.00 0.00 56 1010.7
20260505034604 15 263 3.2 11.3 0.00 0.00 0.00 57 1010.7
20260505034104 15 266 1.6 4.8 0.00 0.00 0.00 57 1010.8
20260505033605 15 266 1.6 4.8 0.00 0.00 0.00 56 1010.8
20260505033104 15 266 3.2 4.8 0.00 0.00 0.00 56 1010.9
20260505032605 15 266 0.0 4.8 0.00 0.00 0.00 57 1010.9
20260505032105 15 266 0.0 3.2 0.00 0.00 0.00 56 1010.9
20260505031604 15 266 0.0 3.2 0.00 0.00 0.00 56 1010.9
20260505031103 16 266 0.0 1.6 0.00 0.00 0.00 56 1010.9
20260505030104 16 266 1.6 4.8 0.00 0.00 0.00 55 1010.9
20260505025603 16 266 1.6 3.2 0.00 0.00 0.00 55 1010.9
20260505024604 16 254 0.0 3.2 0.00 0.00 0.00 54 1010.9
20260505024105 16 280 3.2 8.0 0.00 0.00 0.00 54 1010.9
20260505023104 16 274 3.2 4.8 0.00 0.00 0.00 54 1011.0
20260505022605 16 272 1.6 9.7 0.00 0.00 0.00 54 1011.0
20260505022105 16 286 0.0 4.8 0.00 0.00 0.00 54 1011.0
20260505021604 16 201 1.6 3.2 0.00 0.00 0.00 54 1011.0
20260505021103 16 234 1.6 4.8 0.00 0.00 0.00 54 1011.1
20260505020604 16 244 0.0 4.8 0.00 0.00 0.00 53 1011.0
20260505020104 16 284 0.0 9.7 0.00 0.00 0.00 53 1011.0
20260505015604 16 233 1.6 4.8 0.00 0.00 0.00 53 1010.9
20260505015104 16 222 0.0 1.6 0.00 0.00 0.00 53 1010.9
20260505014604 16 222 1.6 4.8 0.00 0.00 0.00 53 1010.9
20260505014103 16 262 1.6 4.8 0.00 0.00 0.00 53 1010.9
20260505013604 16 253 1.6 4.8 0.00 0.00 0.00 53 1010.8
20260505013105 16 253 1.6 3.2 0.00 0.00 0.00 53 1010.7
20260505012604 17 251 1.6 4.8 0.00 0.00 0.00 52 1010.6
20260505012104 17 251 0.0 1.6 0.00 0.00 0.00 52 1010.6
20260505011604 17 251 0.0 1.6 0.00 0.00 0.00 52 1010.5
20260505011104 17 251 0.0 3.2 0.00 0.00 0.00 51 1010.5
20260505010604 17 251 0.0 1.6 0.00 0.00 0.00 51 1010.4
20260505005604 17 251 0.0 1.6 0.00 0.00 0.00 49 1010.3
20260505005104 17 251 0.0 1.6 0.00 0.00 0.00 49 1010.2
20260505004604 17 251 0.0 0.0 0.00 0.00 0.00 49 1010.1
20260505003604 18 251 1.6 3.2 0.00 0.00 0.00 48 1010.0
20260505003105 18 251 0.0 0.0 0.00 0.00 0.00 47 1010.0
20260505002604 18 251 1.6 9.7 0.00 0.00 0.00 47 1009.9
20260505002104 18 274 1.6 4.8 0.00 0.00 0.00 47 1009.8
20260505001604 18 267 1.6 4.8 0.00 0.00 0.00 46 1009.7
20260505001104 18 266 1.6 4.8 0.00 0.00 0.00 45 1009.6
20260505000603 19 265 0.0 0.0 0.00 0.00 0.00 45 1009.5
20260505000104 19 265 0.0 3.2 0.00 0.00 0.00 44 1009.4
20260504235604 20 265 0.0 0.0 0.00 0.00 0.00 43 1009.4
20260504235104 20 264 3.2 8.0 0.00 0.00 0.00 42 1009.3
20260504234603 20 282 0.0 11.3 0.00 0.00 0.00 41 1009.2
20260504234104 20 279 3.2 9.7 0.00 0.00 0.00 41 1009.2
20260504233604 20 285 4.8 12.9 0.00 0.00 0.00 40 1009.2
20260504232604 20 244 3.2 8.0 0.00 0.00 0.00 41 1009.0
20260504232104 21 279 3.2 12.9 0.00 0.00 0.00 40 1008.9
20260504231604 21 231 1.6 19.3 0.00 0.00 0.00 41 1008.9
20260504231103 21 254 4.8 11.3 0.00 0.00 0.00 40 1008.9
20260504230604 21 260 4.8 19.3 0.00 0.00 0.00 40 1008.8
20260504230105 21 274 4.8 16.1 0.00 0.00 0.00 38 1008.8
20260504225604 21 270 8.0 19.3 0.00 0.00 0.00 39 1008.7
20260504225103 21 236 8.0 14.5 0.00 0.00 0.00 38 1008.7
20260504224604 21 229 8.0 19.3 0.00 0.00 0.00 37 1008.7
20260504224104 21 288 8.0 22.5 0.00 0.00 0.00 37 1008.7
20260504223104 22 263 8.0 19.3 0.00 0.00 0.00 37 1008.6
20260504222103 22 261 8.0 19.3 0.00 0.00 0.00 38 1008.6
20260504221604 22 285 9.7 20.9 0.00 0.00 0.00 37 1008.7
20260504221104 22 302 8.0 22.5 0.00 0.00 0.00 37 1008.7
20260504220104 22 274 6.4 19.3 0.00 0.00 0.00 37 1008.8
20260504215603 22 264 4.8 25.7 0.00 0.00 0.00 37 1008.8
20260504215105 22 292 4.8 24.1 0.00 0.00 0.00 36 1008.8
20260504214603 22 274 3.2 27.4 0.00 0.00 0.00 37 1008.9